Weather History for Jersey, United Kingdom

Change the Weather History Date:

Tuesday, October 2, 2012

  Actual Average Record
Temperature  
Mean Temperature 58 °F -  
Max Temperature 63 °F 58 °F 77 °F (2011)
Min Temperature 54 °F 51 °F 48 °F (2008)
Degree Days  
Heating Degree Days 6    
Growing Degree Days 8 (Base 50)    
Moisture  
Dew Point 54 °F    
Average Humidity 85    
Maximum Humidity 94    
Minimum Humidity 69    
Precipitation  
Precipitation 0.00 in - - ()
Sea Level Pressure  
Sea Level Pressure 29.94 in    
Wind  
Wind Speed 18 mph ()    
Max Wind Speed 110 mph    
Max Gust Speed 33 mph    
Visibility 6.8 miles    
Events Rain    
Averages and records for this station are not official NWS values.
T = Trace of Precipitation, MM = Missing Value Source: Averaged Metar Reports

Daily Weather History Graph

Daily Weather History Graph

Search for Another Location

Airport:

Trip Planner

Search our weather history database for the weather conditions in past years. The results will help you decide how hot, cold, wet, or windy it might be!

Date:

Astronomy

Oct. 02, 2012 Rise Set
Actual Time 7:10 AM BST 6:44 PM BST
Civil Twilight 6:38 AM BST 7:16 PM BST
Nautical Twilight 6:01 AM BST 7:53 PM BST
Astronomical Twilight 5:24 AM BST 8:30 PM BST
Moon 7:30 PM BST (10/2) 9:40 AM BST (10/2)
Length of Visible Light 12h 37m
Length of Day
11h 34m
Waning Gibbous, 95% of the Moon is Illuminated
Oct 2
Waning Gibbous
Oct 8
Last Quarter
Oct 15
New
Oct 22
First Quarter
Oct 29
Full

Hourly Weather History & Observations

Time (BST) Temp. Dew Point Humidity Pressure Visibility Wind Dir Wind Speed Gust Speed Precip Events Conditions
1:00 AM 57 °F 54 °F 84% 29.99 in 28 mi West 13.8 mph - -   Mostly Cloudy
3:50 AM 55.4 °F 53.6 °F 94% 29.95 in 6.2 mi SW 12.7 mph - N/A   Scattered Clouds
4:00 AM 56 °F 54 °F 90% 29.97 in 28 mi SW 12.7 mph - -   Mostly Cloudy
4:20 AM 57.2 °F 53.6 °F 88% 29.95 in 6.2 mi WSW 13.8 mph - N/A   Scattered Clouds
4:50 AM 55.4 °F 53.6 °F 94% 29.95 in 6.2 mi WSW 18.4 mph - N/A   Scattered Clouds
5:20 AM 55.4 °F 53.6 °F 94% 29.95 in 6.2 mi WSW 16.1 mph - N/A   Scattered Clouds
5:50 AM 55.4 °F 53.6 °F 94% 29.95 in 6.2 mi WSW 17.3 mph - N/A   Scattered Clouds
6:20 AM 55.4 °F 53.6 °F 94% 29.95 in 6.2 mi WSW 20.7 mph - N/A   Partly Cloudy
6:50 AM 55.4 °F 53.6 °F 94% 29.95 in 6.2 mi WSW 17.3 mph - N/A   Partly Cloudy
7:00 AM 56 °F 53 °F 86% 29.96 in 25 mi WSW 17.3 mph - -   Partly Cloudy
7:20 AM 55.4 °F 53.6 °F 94% 29.95 in 6.2 mi WSW 19.6 mph - N/A   Scattered Clouds
7:50 AM 55.4 °F 53.6 °F 94% 29.95 in 6.2 mi WSW 17.3 mph - N/A   Scattered Clouds
8:20 AM 55.4 °F 53.6 °F 94% 29.95 in 6.2 mi WSW 17.3 mph - N/A   Scattered Clouds
8:50 AM 57.2 °F 53.6 °F 88% 29.98 in 6.2 mi WSW 17.3 mph - N/A   Scattered Clouds
9:20 AM 59.0 °F 55.4 °F 88% 29.98 in 6.2 mi SW 20.7 mph - N/A   Scattered Clouds
9:50 AM 59.0 °F 53.6 °F 82% 29.98 in 6.2 mi SW 20.7 mph - N/A   Scattered Clouds
10:00 AM 58 °F 54 °F 80% 29.98 in 19 mi SW 18.4 mph - -   Partly Cloudy
10:20 AM 59.0 °F 55.4 °F 88% 29.98 in 6.2 mi SW 17.3 mph - N/A   Partly Cloudy
10:50 AM 59.0 °F 53.6 °F 82% 29.98 in 6.2 mi SW 20.7 mph - N/A   Partly Cloudy
11:20 AM 59.0 °F 53.6 °F 82% 29.98 in 6.2 mi SW 17.3 mph - N/A   Partly Cloudy
11:50 AM 60.8 °F 53.6 °F 77% 29.95 in 6.2 mi SSW 15.0 mph - N/A   Partly Cloudy
12:20 PM 60.8 °F 55.4 °F 82% 29.95 in 6.2 mi North 110.5 mph - N/A   Partly Cloudy
12:50 PM 60.8 °F 53.6 °F 77% 29.95 in 6.2 mi SSW 20.7 mph - N/A   Partly Cloudy
1:00 PM 61 °F 53 °F 69% 29.96 in 22 mi SW 20.7 mph - -   Partly Cloudy
1:20 PM 62.6 °F 53.6 °F 72% 29.95 in 6.2 mi SW 19.6 mph - N/A   Partly Cloudy
1:50 PM 62.6 °F 55.4 °F 77% 29.92 in 6.2 mi SSW 18.4 mph - N/A   Partly Cloudy
2:20 PM 60.8 °F 55.4 °F 82% 29.92 in 6.2 mi SSW 20.7 mph 33.4 mph N/A Rain Light Rain Showers
2:50 PM 60.8 °F 55.4 °F 82% 29.92 in 6.2 mi SSW 23.0 mph - N/A   Partly Cloudy
3:20 PM 60.8 °F 55.4 °F 82% 29.92 in 6.2 mi SSW 18.4 mph - N/A   Partly Cloudy
3:50 PM 60.8 °F 55.4 °F 82% 29.92 in 6.2 mi SSW 16.1 mph - N/A   Mostly Cloudy
4:00 PM 61 °F 55 °F 76% 29.91 in 22 mi SSW 17.3 mph - -   Mostly Cloudy
4:20 PM 60.8 °F 53.6 °F 77% 29.89 in 6.2 mi SW 21.9 mph - N/A   Mostly Cloudy
4:50 PM 60.8 °F 53.6 °F 77% 29.89 in 6.2 mi SSW 25.3 mph - N/A   Scattered Clouds
5:20 PM 60.8 °F 51.8 °F 72% 29.89 in 6.2 mi SW 19.6 mph - N/A   Partly Cloudy
5:50 PM 60.8 °F 53.6 °F 77% 29.89 in 6.2 mi SW 20.7 mph - N/A   Partly Cloudy
6:20 PM 59.0 °F 55.4 °F 88% 29.89 in 6.2 mi SW 24.2 mph - N/A Rain Light Rain
6:50 PM 59.0 °F 55.4 °F 88% 29.89 in 6.2 mi WSW 17.3 mph - N/A Rain Light Rain
7:00 PM 58 °F 54 °F 84% 29.89 in 7 mi SW 19.6 mph - - Rain Light Rain
7:20 PM 57.2 °F 55.4 °F 94% 29.89 in 6.2 mi SW 19.6 mph - N/A Rain Light Rain
7:50 PM 57.2 °F 55.4 °F 94% 29.89 in 6.2 mi SW 20.7 mph - N/A Rain Light Rain
8:20 PM 57.2 °F 53.6 °F 88% 29.89 in 6.2 mi WSW 21.9 mph - N/A Rain Light Rain
8:50 PM 57.2 °F 53.6 °F 88% 29.89 in 6.2 mi WSW 25.3 mph - N/A   Scattered Clouds
10:00 PM 57 °F 54 °F 85% 29.88 in 16 mi SW 20.7 mph - -   Partly Cloudy